This is the latest recevied weather packets stored in our database for station/object WX7FGZ-5. If no packets are shown the sender has not sent any weather packets the latest 10 day(s).
| Time | Temp. | Humidity | Pressure | Rain* | Wind** | Luminosity | Snow |
|---|---|---|---|---|---|---|---|
| 1788135738 | 70° F | 63% | 770.4 mmHg | 0 in | - | 67 W/m² | - |
| 1788135438 | 71° F | 62% | 770.4 mmHg | 0 in | - | 58 W/m² | - |
| 1788134843 | 71° F | 60% | 770.4 mmHg | 0 in | - | 53 W/m² | - |
| 1788134548 | 71° F | 60% | 770.3 mmHg | 0 in | - | 53 W/m² | - |
| 1788134238 | 72° F | 59% | 770.4 mmHg | 0 in | - | 56 W/m² | - |
| 1788133991 | 72° F | 58% | 770.3 mmHg | 0 in | - | 65 W/m² | - |
| 1788133938 | 72° F | 58% | 770.3 mmHg | 0 in | - | 65 W/m² | - |
| 1788133640 | 71° F | 59% | 770.4 mmHg | 0 in | - | 86 W/m² | - |
| 1788133037 | 72° F | 57% | 770.5 mmHg | 0 in | - | 104 W/m² | - |
| 1788132139 | 72° F | 57% | 770.6 mmHg | 0 in | - | 146 W/m² | - |
| 1788130937 | 72° F | 57% | 770.5 mmHg | 0 in | - | 135 W/m² | - |
| 1788130637 | 73° F | 56% | 770.5 mmHg | 0 in | - | 185 W/m² | - |
| 1788130336 | 72° F | 56% | 770.6 mmHg | 0 in | - | 213 W/m² | - |
| 1788130043 | 73° F | 54% | 770.7 mmHg | 0 in | - | 385 W/m² | - |
| 1788129737 | 72° F | 53% | 770.8 mmHg | 0 in | - | 388 W/m² | - |
| 1788129438 | 72° F | 51% | 770.9 mmHg | 0 in | - | 195 W/m² | - |
| 1788128853 | 73° F | 54% | 770.8 mmHg | 0 in | - | 132 W/m² | - |
| 1788128546 | 73° F | 56% | 770.8 mmHg | 0 in | - | 348 W/m² | - |
| 1788127947 | 72° F | 58% | 770.8 mmHg | 0 in | - | 255 W/m² | - |
| 1788127354 | 72° F | 55% | 771 mmHg | 0 in | - | 230 W/m² | - |
| 1788126753 | 73° F | 53% | 771.1 mmHg | 0 in | - | 441 W/m² | - |
| 1788126159 | 74° F | 52% | 771 mmHg | 0 in | - | 163 W/m² | - |
| 1788125856 | 76° F | 49% | 771.1 mmHg | 0 in | - | 211 W/m² | - |
| 1788125554 | 76° F | 49% | 771.1 mmHg | 0 in | - | 969 W/m² | - |
| 1788124653 | 75° F | 50% | 771.3 mmHg | 0 in | - | 918 W/m² | - |
* Rain latest hour (hover to see other rain measurements)
** Current wind speed in m/s (hover to see current wind gust speed)